Find Kosmos-1052

NORAD ID: 11129 Int'l Des: 1978-109 Owner: GUKOSR Country: SU operational
LEOCIRCULAR

当前视图

正在加载3D地球...

About Kosmos-1052

Kosmos-1052 (NORAD 11129) is a satellite launched Dec 5, 1978 by GUKOSR of SU. It operates in LEO, CIRCULAR orbit with a mass of 60.00 kg.

即将过境

Passes for default location (London). Set your location on the main map for personalized predictions.

高度历史

Loading altitude history...

两行轨道根数

1 11129U 78109B 26195.53061442 -.00000013 00000-0 15963-4 0 9990
2 11129 74.0168 114.6448 0048978 108.5907 2.0071 12.53729127178742
Epoch: Jul 14, 2026 • Age: 10 hours

当前状态

高度 1511.9 km
远地点 / 近地点 N/A
速度 7.09 km/s
星下点 -74.05°S, 99.75°E
发射日期 Dec 5, 1978
运行时间 47.6 years
类型 other

技术详情

分类 Payload
质量 60.00 kg
干质量 60.00 kg
总质量 60.00 kg
长度 0.80 m
直径 0.80 m
跨度 0.80 m
形状 Poly
制造商 NPOPM
平台类型 Strela-1 11F625
阶段状态 In Orbit
所有者/国家 GUKOSR/SU

Most Searched